Wind_Speed
45 41 39 38 40 42 40 39 38 39 38 37 33 30 29 25 25 24 25 22 20 22 16 15 17 19 19 20 20 19 17 18 21 23 26 22 24 23 24 25 27 26 29
42 38 38 40 39 38 38 37 36 38 35 34 27 28 26 24 22 20 19 18 18 18 16 13 13 15 16 18 17 15 15 18 18 16 17 20 18 16 17 18 21 22 23
39 42 45 38 38 38 39 36 38 38 33 31 25 26 22 21 19 18 15 13 14 14 12 13 14 13 14 14 12 12 14 13 11 14 18 16 14 12 11 12 14 16 15
40 44 37 37 39 38 36 37 37 37 31 28 24 24 20 18 14 14 17 12 14 11 13 10 12 12 12 9 8 11 8 8 6 5 4 7 7 6 5 8 14 14 20
30 33 36 37 38 38 38 37 37 36 29 27 22 21 16 11 7 7 13 16 16 11 10 9 10 9 6 3 8 8 7 3 2 7 9 9 9 6 6 8 14 20 24
31 36 36 38 40 41 42 40 38 36 30 27 21 18 15 13 9 12 11 12 13 11 8 7 7 4 3 4 2 2 2 5 8 9 12 13 14 12 15 10 17 17 22
35 37 38 40 43 46 47 43 40 35 29 26 19 16 15 14 14 17 13 12 10 9 10 10 8 4 5 7 7 3 4 15 9 8 9 11 12 13 15 16 17 20 20
38 40 43 47 51 53 52 48 39 32 28 23 16 16 16 13 17 19 14 15 12 11 13 13 9 5 7 12 14 11 18 14 13 13 12 13 15 16 20 25 25 25 22
41 45 50 54 57 59 56 49 39 29 23 19 14 15 19 12 17 19 15 15 14 14 17 12 8 8 14 13 13 15 15 11 14 14 13 14 18 18 20 25 24 25 24
45 50 57 64 66 62 54 40 31 25 20 16 15 19 20 16 20 19 15 16 15 16 17 12 8 9 14 15 13 14 15 15 13 16 17 20 22 22 23 23 27 28 29
49 55 64 68 64 53 39 25 17 18 19 19 17 25 21 17 15 21 19 18 16 17 17 13 10 12 17 15 18 12 11 15 19 23 26 26 26 25 26 27 28 27 27
52 61 67 69 62 43 24 10 6 13 20 21 20 27 17 23 20 19 20 17 17 18 17 14 14 15 17 16 17 18 15 19 23 25 26 26 24 24 24 23 24 24 24
54 60 67 66 56 34 16 8 8 18 19 22 23 29 23 22 19 17 18 16 16 16 17 15 16 17 18 17 21 17 21 24 24 23 23 24 23 22 22 23 24 23 22
52 57 64 61 49 26 16 14 16 19 22 22 27 19 22 23 20 18 17 17 17 17 17 17 17 18 20 18 15 25 26 26 23 21 20 21 22 22 21 20 20 19 18
48 52 59 57 41 29 23 20 20 22 22 25 22 23 23 22 19 15 15 16 17 16 15 15 17 19 19 21 21 26 28 27 24 21 19 20 20 20 18 17 16 15 14
42 45 49 51 38 30 26 23 23 23 28 24 19 21 24 19 15 14 13 14 15 16 15 15 17 17 19 24 25 28 29 28 24 21 19 18 18 17 16 14 12 11 9
35 36 37 40 40 34 30 29 30 26 21 20 17 12 19 17 11 10 12 13 14 15 15 15 16 17 19 25 26 28 29 28 25 22 20 19 18 17 15 13 12 11 9
29 30 28 28 27 29 27 24 21 19 18 18 16 15 13 11 10 10 9 10 12 14 15 15 16 17 22 23 25 26 28 29 28 25 22 20 19 18 16 14 12 11 10
24 24 21 19 18 15 13 12 12 15 13 9 8 7 8 7 8 10 8 8 11 14 16 16 18 18 24 23 26 28 29 28 27 25 24 22 20 18 16 15 14 13 13
20 20 18 13 10 7 4 4 3 10 9 10 7 7 4 5 9 9 5 9 13 15 16 18 20 20 22 24 27 29 28 27 27 27 25 23 22 21 20 20 19 18 18
19 17 16 15 9 8 5 5 5 7 13 12 13 13 13 10 11 13 10 10 11 14 17 19 21 23 25 25 29 29 29 29 29 28 27 26 24 23 23 22 22 22 22
25 20 16 14 13 10 11 13 12 15 15 16 17 18 19 19 18 13 14 12 13 17 18 20 23 25 27 30 31 30 30 29 29 29 29 28 27 26 26 26 26 26 26
28 26 23 20 19 18 15 15 19 21 21 22 23 22 21 20 21 22 24 25 22 22 20 22 25 28 29 31 33 35 35 34 33 32 32 31 31 31 31 31 31 31 31
32 28 25 24 23 24 26 23 21 21 24 28 27 27 29 29 28 26 23 24 25 27 27 26 27 29 32 32 34 35 36 38 39 39 39 38 39 38 38 38 38 37 37
36 36 32 30 27 25 27 29 31 29 28 28 29 32 32 30 31 34 35 33 33 33 32 30 30 32 35 32 31 37 38 38 38 38 38 38 38 39 39 39 39 38 38
41 39 39 37 35 34 29 29 32 34 37 36 33 33 32 33 34 35 34 34 37 39 40 39 38 37 36 37 38 38 39 39 38 38 39 39 39 38 38 38 39 38 38
Wind_Direction
306 304 303 301 305 303 303 303 305 307 302 300 303 306 308 293 287 285 281 253 254 255 249 262 257 254 249 251 257 255 250 256 265 272 273 270 270 269 253 251 250 243 236
308 305 302 304 300 305 305 304 310 312 303 301 302 310 301 290 284 284 275 249 251 239 236 255 255 249 249 256 245 246 258 274 273 277 280 268 273 270 245 245 239 239 230
307 304 306 306 309 309 309 308 310 313 303 302 304 313 296 287 280 272 259 245 232 221 231 243 255 259 256 235 240 262 274 283 289 288 280 273 258 241 241 239 216 193 200
311 307 310 311 311 312 311 309 311 310 300 301 302 312 292 287 275 266 238 226 208 212 236 235 251 247 234 237 261 269 276 295 275 265 207 190 193 217 238 206 185 180 187
318 315 315 314 314 314 313 309 307 310 300 297 295 305 280 274 282 245 206 191 203 223 232 238 229 219 226 256 264 271 266 266 129 144 139 139 131 139 171 173 177 177 171
320 318 318 316 314 313 311 310 304 306 296 293 287 294 264 247 212 191 199 212 226 220 223 219 209 190 256 223 201 279 317 136 159 137 137 125 118 81 72 130 164 159 174
325 321 319 317 315 314 312 308 304 299 288 285 274 276 242 226 211 207 215 209 200 202 207 195 188 223 187 143 109 104 79 133 117 124 138 133 125 113 102 106 115 143 170
326 324 324 323 318 313 309 305 298 286 275 268 251 256 219 213 205 206 213 196 206 197 187 181 184 183 151 122 154 146 134 112 121 127 130 132 136 127 127 117 114 128 125
331 330 326 320 317 315 308 298 287 275 262 242 231 230 193 220 194 198 200 196 185 185 179 182 180 166 134 108 148 126 143 132 138 138 135 130 132 128 126 129 128 129 121
336 331 327 326 324 316 309 300 277 258 242 216 214 205 182 210 187 186 192 193 182 182 180 183 170 177 139 140 154 148 135 135 135 134 130 125 127 126 123 121 121 122 121
337 335 334 333 333 327 317 300 268 234 211 190 200 188 174 175 190 195 187 185 182 178 182 184 183 176 156 156 148 152 139 139 142 134 126 122 122 122 122 121 121 122 122
342 342 341 342 342 342 340 322 236 195 178 183 182 188 152 177 183 179 179 179 182 180 184 184 179 180 169 155 162 173 150 151 146 140 135 132 130 130 128 126 125 126 126
348 350 349 350 350 355 11 42 129 150 168 169 169 167 156 169 187 186 177 180 179 181 189 182 178 181 173 162 171 169 160 158 154 152 146 141 139 137 134 132 130 128 129
354 357 356 358 2 17 59 77 116 140 148 154 165 142 169 178 182 171 173 180 178 185 188 181 184 187 187 187 182 179 168 163 163 161 154 147 143 142 141 140 139 139 139
0 4 4 8 20 47 63 83 106 121 133 149 131 144 153 156 161 168 176 179 183 190 188 183 188 191 188 181 180 173 173 171 171 170 164 158 155 154 155 156 156 155 154
6 11 15 19 28 49 67 81 96 116 131 121 144 149 153 152 155 165 174 177 186 191 190 188 191 192 186 184 182 178 179 178 179 180 174 174 171 173 174 175 176 176 176
9 14 23 35 43 55 73 91 106 109 113 126 138 129 148 162 161 180 177 179 187 190 193 192 192 191 186 183 184 181 182 183 185 187 187 185 187 188 189 189 192 195 195
6 16 23 40 60 76 87 96 103 110 119 121 127 134 142 159 172 163 171 180 189 192 191 190 194 196 196 189 186 186 188 191 193 194 196 197 198 200 200 200 202 208 208
359 6 17 29 51 68 77 88 112 130 135 131 120 127 155 168 189 180 165 193 192 194 194 191 191 190 186 190 193 192 195 197 200 203 205 207 209 211 215 222 224 225 228
347 353 360 9 11 32 25 43 86 175 183 194 196 189 194 200 195 204 240 221 203 200 198 195 193 197 202 204 198 199 202 203 205 212 213 215 217 220 224 228 231 236 241
319 330 335 340 345 312 299 272 252 223 221 230 238 243 244 243 230 232 253 212 214 213 205 201 203 202 204 204 199 202 208 212 215 218 220 223 226 230 234 237 240 243 247
308 301 300 305 308 301 281 270 255 249 248 245 242 239 239 242 241 226 210 220 225 217 213 213 212 214 215 214 212 213 215 217 220 223 226 228 230 235 240 243 247 250 254
315 308 299 287 282 283 274 270 266 261 254 249 250 252 247 245 244 245 247 246 234 220 220 223 221 220 221 222 222 223 224 226 227 229 230 233 236 238 240 243 247 250 254
310 308 303 295 275 270 272 268 261 261 262 259 255 251 249 249 247 245 247 244 236 230 230 233 232 230 227 228 226 226 228 229 232 236 238 241 243 244 247 251 254 257 260
302 301 300 297 296 276 258 262 266 264 258 258 258 255 254 253 252 249 246 243 238 238 240 241 241 236 232 234 233 231 229 233 235 236 239 242 246 249 251 253 255 257 259
299 296 294 293 291 288 279 268 256 260 265 263 261 258 257 254 251 251 252 250 247 245 244 243 245 243 239 236 236 236 238 241 240 241 244 246 248 249 250 253 255 257 259
Height
5710 5704 5698 5693 5688 5682 5677 5671 5666 5660 5654 5649 5646 5641 5636 5633 5631 5630 5629 5630 5632 5634 5636 5637 5639 5640 5641 5643 5645 5647 5647 5649 5649 5647 5646 5644 5643 5642 5642 5644 5646 5650 5654
5699 5693 5688 5684 5677 5672 5666 5661 5655 5650 5644 5640 5637 5633 5628 5626 5625 5624 5623 5625 5627 5629 5632 5634 5634 5636 5638 5640 5641 5642 5642 5642 5642 5640 5637 5636 5636 5635 5636 5637 5640 5643 5647
5690 5685 5679 5673 5667 5661 5655 5650 5645 5640 5635 5632 5629 5626 5622 5620 5618 5619 5619 5620 5622 5625 5628 5630 5631 5633 5634 5636 5637 5638 5638 5636 5635 5634 5632 5631 5631 5632 5633 5634 5635 5639 5642
5682 5676 5669 5664 5658 5652 5646 5641 5636 5631 5627 5623 5621 5619 5616 5614 5614 5613 5615 5617 5620 5624 5626 5628 5630 5630 5632 5633 5633 5633 5633 5633 5632 5631 5629 5629 5630 5631 5631 5632 5634 5638 5642
5673 5668 5662 5656 5649 5643 5637 5631 5627 5621 5618 5615 5614 5612 5611 5611 5610 5610 5611 5615 5619 5622 5624 5627 5628 5628 5630 5630 5631 5631 5631 5631 5631 5630 5630 5630 5631 5631 5630 5631 5633 5638 5643
5668 5661 5654 5647 5640 5633 5626 5620 5615 5611 5608 5606 5606 5606 5606 5607 5608 5610 5612 5615 5618 5620 5623 5624 5626 5627 5627 5628 5629 5629 5629 5630 5631 5631 5631 5633 5633 5630 5630 5632 5634 5639 5645
5660 5653 5646 5638 5630 5622 5614 5608 5603 5599 5597 5597 5598 5599 5600 5602 5605 5607 5610 5613 5616 5619 5621 5623 5625 5626 5626 5627 5629 5629 5629 5631 5632 5634 5635 5636 5637 5637 5637 5636 5638 5640 5645
5653 5646 5637 5627 5617 5608 5598 5592 5588 5585 5585 5586 5589 5591 5594 5596 5600 5604 5607 5611 5614 5618 5620 5623 5625 5626 5626 5629 5630 5630 5632 5634 5635 5636 5637 5638 5640 5641 5642 5644 5645 5647 5649
5646 5636 5626 5616 5604 5591 5579 5571 5569 5570 5573 5576 5580 5583 5589 5592 5596 5601 5605 5608 5612 5616 5620 5622 5624 5625 5628 5630 5631 5632 5635 5637 5638 5639 5641 5642 5643 5646 5647 5647 5650 5652 5655
5639 5628 5614 5599 5584 5567 5553 5548 5548 5554 5560 5567 5572 5576 5583 5588 5593 5598 5603 5607 5611 5614 5618 5621 5623 5625 5629 5632 5635 5637 5638 5640 5642 5644 5645 5646 5648 5650 5652 5655 5656 5658 5661
5633 5619 5603 5584 5564 5545 5534 5529 5532 5540 5549 5558 5565 5571 5577 5586 5591 5596 5602 5606 5610 5613 5617 5620 5623 5625 5629 5633 5637 5639 5641 5643 5645 5647 5648 5651 5654 5656 5659 5660 5663 5666 5669
5627 5612 5593 5571 5549 5532 5523 5521 5524 5533 5543 5552 5560 5566 5575 5583 5590 5595 5601 5605 5609 5612 5616 5620 5623 5626 5630 5634 5638 5641 5643 5646 5649 5652 5653 5655 5659 5662 5663 5665 5668 5671 5674
5622 5607 5588 5565 5544 5529 5524 5523 5526 5534 5543 5551 5559 5567 5576 5583 5589 5595 5600 5604 5608 5612 5616 5620 5623 5627 5631 5634 5638 5641 5645 5649 5652 5656 5658 5660 5662 5666 5668 5670 5673 5675 5679
5621 5607 5588 5567 5547 5534 5531 5532 5534 5540 5547 5555 5561 5570 5578 5584 5590 5596 5600 5605 5608 5612 5615 5619 5622 5626 5631 5635 5638 5642 5646 5650 5654 5658 5660 5663 5665 5668 5671 5674 5677 5679 5682
5623 5610 5594 5576 5561 5551 5547 5546 5548 5552 5557 5562 5570 5575 5582 5589 5594 5598 5602 5606 5610 5613 5616 5619 5623 5626 5630 5634 5638 5642 5646 5650 5655 5659 5662 5665 5667 5670 5673 5676 5679 5681 5684
5626 5615 5604 5589 5577 5569 5565 5564 5564 5567 5571 5576 5579 5584 5588 5592 5597 5601 5604 5607 5610 5613 5616 5618 5622 5626 5629 5633 5637 5642 5647 5651 5655 5659 5663 5666 5669 5671 5674 5677 5680 5682 5685
5629 5621 5613 5605 5595 5587 5582 5581 5583 5585 5585 5587 5591 5592 5594 5597 5600 5603 5605 5608 5610 5613 5615 5618 5622 5625 5628 5632 5637 5641 5647 5651 5655 5659 5663 5666 5669 5672 5674 5677 5679 5682 5684
5631 5625 5620 5614 5609 5605 5601 5598 5596 5596 5596 5597 5598 5598 5600 5601 5603 5604 5606 5608 5610 5613 5615 5618 5621 5625 5628 5632 5636 5641 5645 5650 5654 5657 5661 5664 5667 5670 5673 5676 5678 5681 5683
5632 5628 5623 5619 5616 5613 5610 5607 5605 5604 5603 5603 5603 5603 5603 5604 5604 5605 5607 5609 5610 5613 5615 5617 5620 5623 5627 5631 5635 5639 5643 5647 5651 5655 5659 5663 5666 5668 5671 5674 5676 5678 5680
5632 5628 5625 5621 5618 5615 5613 5611 5610 5608 5606 5605 5605 5605 5605 5605 5606 5606 5607 5608 5609 5611 5613 5616 5619 5622 5625 5629 5633 5637 5640 5644 5649 5652 5656 5659 5662 5665 5668 5670 5672 5674 5676
5627 5626 5622 5620 5617 5614 5612 5610 5609 5608 5607 5606 5605 5604 5605 5605 5605 5605 5606 5607 5608 5609 5611 5613 5617 5620 5623 5626 5629 5633 5637 5640 5644 5648 5651 5654 5657 5660 5663 5665 5667 5669 5671
5620 5618 5617 5615 5612 5610 5608 5606 5604 5604 5604 5603 5602 5601 5601 5601 5602 5603 5603 5604 5605 5607 5608 5611 5613 5616 5619 5622 5626 5629 5633 5636 5639 5642 5645 5648 5651 5654 5656 5659 5661 5663 5664
5611 5609 5608 5607 5605 5603 5601 5600 5599 5597 5596 5595 5596 5596 5596 5597 5597 5598 5599 5600 5602 5603 5604 5606 5608 5610 5613 5616 5619 5623 5626 5629 5633 5635 5638 5641 5644 5646 5648 5651 5653 5655 5656
5603 5600 5597 5596 5595 5594 5593 5592 5590 5589 5588 5587 5586 5587 5588 5589 5590 5591 5592 5593 5595 5596 5598 5600 5601 5603 5606 5608 5611 5614 5617 5620 5623 5627 5629 5632 5634 5637 5639 5641 5643 5646 5647
5590 5588 5587 5584 5583 5581 5580 5580 5580 5579 5578 5577 5576 5576 5576 5577 5579 5580 5582 5584 5585 5587 5589 5591 5593 5595 5598 5600 5602 5605 5608 5611 5614 5617 5619 5621 5624 5626 5628 5631 5633 5635 5636
5578 5575 5573 5572 5571 5569 5569 5567 5567 5566 5565 5564 5565 5565 5565 5565 5565 5567 5570 5573 5575 5577 5578 5581 5583 5585 5587 5590 5593 5595 5598 5601 5604 5606 5609 5611 5613 5615 5618 5620 5622 5624 5626